,,,PA_Meas_PMT16A,,PR_Meas_QMR101_102,,RH_Meas_QMH101,,SR_Meas_QMS101,,TA_Meas_QMH101,,GenWind,,GenWind,
date,time,status,PA,status,PR,status,RH,status,SR,status,TA,status,DirAvg,status,SpdAvg,
2012-07-04, 00:00:04,VALID,1007.11,VALID,0,VALID,104,VALID,0,VALID,24.0448,VALID,196,VALID,0,
2012-07-04, 00:01:04,VALID,1007.14,VALID,0,VALID,104,VALID,0,VALID,24.0235,VALID,196,VALID,0,
2012-07-04, 00:02:04,VALID,1007.15,VALID,0,VALID,104,VALID,0.112112,VALID,24.0448,VALID,196,VALID,0,
2012-07-04, 00:03:04,VALID,1007.17,VALID,0,VALID,104,VALID,0,VALID,24.0429,VALID,196,VALID,0,
2012-07-04, 00:04:04,VALID,1007.14,VALID,0,VALID,104,VALID,0,VALID,24.0643,VALID,196,VALID,0,
2012-07-04, 00:05:04,VALID,1007.18,VALID,0,VALID,104,VALID,0,VALID,24.0235,VALID,196,VALID,0.236719,
2012-07-04, 00:06:04,VALID,1007.18,VALID,0,VALID,104,VALID,0,VALID,24.0058,VALID,196,VALID,0.322266,
2012-07-04, 00:07:04,VALID,1007.17,VALID,0,VALID,104,VALID,0,VALID,23.9863,VALID,196,VALID,0.285937,
2012-07-04, 00:08:04,VALID,1007.17,VALID,0,VALID,104,VALID,0.112112,VALID,23.9668,VALID,196,VALID,0.0246094,
2012-07-04, 00:09:04,VALID,1007.19,VALID,0,VALID,104,VALID,0.112112,VALID,23.9278,VALID,196,VALID,0,
2012-07-04, 00:10:04,VALID,1007.18,VALID,0,VALID,104,VALID,0,VALID,23.8676,VALID,196,VALID,0,
2012-07-04, 00:11:04,VALID,1007.21,VALID,0,VALID,104,VALID,0,VALID,23.8676,VALID,196,VALID,0,
2012-07-04, 00:12:04,VALID,1007.23,VALID,0,VALID,104,VALID,0,VALID,23.8889,VALID,196,VALID,0,
2012-07-04, 00:13:04,VALID,1007.22,VALID,0,VALID,104,VALID,0,VALID,23.8676,VALID,196,VALID,0,
2012-07-04, 00:14:04,VALID,1007.18,VALID,0,VALID,104,VALID,0,VALID,23.8889,VALID,196,VALID,0,
2012-07-04, 00:15:04,VALID,1007.2,VALID,0,VALID,104,VALID,0,VALID,23.8694,VALID,196,VALID,0,
2012-07-04, 00:16:04,VALID,1007.2,VALID,0,VALID,104,VALID,0,VALID,23.8889,VALID,196,VALID,0,
2012-07-04, 00:17:04,VALID,1007.18,VALID,0,VALID,104,VALID,0,VALID,23.8889,VALID,196,VALID,0,
2012-07-04, 00:18:04,VALID,1007.2,VALID,0,VALID,104,VALID,0,VALID,23.8286,VALID,196,VALID,0,
2012-07-04, 00:19:04,VALID,1007.17,VALID,0,VALID,104,VALID,0,VALID,23.8286,VALID,196,VALID,0,
2012-07-04, 00:20:04,VALID,1007.18,VALID,0,VALID,104,VALID,0,VALID,23.8499,VALID,196,VALID,0,
2012-07-04, 00:21:04,VALID,1007.19,VALID,0,VALID,104,VALID,0,VALID,23.8676,VALID,196,VALID,0,
2012-07-04, 00:22:04,VALID,1007.19,VALID,0,VALID,104,VALID,0,VALID,23.9065,VALID,196,VALID,0,
2012-07-04, 00:23:04,VALID,1007.17,VALID,0,VALID,104,VALID,0,VALID,23.9278,VALID,196,VALID,0,
2012-07-04, 00:24:04,VALID,1007.14,VALID,0,VALID,104,VALID,0.112112,VALID,23.8889,VALID,196,VALID,0.354688,
2012-07-04, 00:25:04,VALID,1007.13,VALID,0,VALID,104,VALID,0,VALID,23.8481,VALID,196,VALID,0.260156,
2012-07-04, 00:26:04,VALID,1007.12,VALID,0,VALID,104,VALID,0,VALID,23.8481,VALID,196,VALID,0.252344,
2012-07-04, 00:27:04,VALID,1007.12,VALID,0,VALID,104,VALID,0.112112,VALID,23.8286,VALID,196,VALID,0.327344,
2012-07-04, 00:28:04,VALID,1007.14,VALID,0,VALID,104,VALID,0.112112,VALID,23.8676,VALID,196,VALID,0.428906,
2012-07-04, 00:29:04,VALID,1007.13,VALID,0,VALID,104,VALID,0,VALID,23.8499,VALID,196,VALID,0.517187,
2012-07-04, 00:30:04,VALID,1007.12,VALID,0,VALID,104,VALID,0,VALID,23.8694,VALID,170,VALID,0.712891,
2012-07-04, 00:31:04,VALID,1007.08,VALID,0,VALID,104,VALID,0,VALID,23.8889,VALID,170,VALID,0.419922,
2012-07-04, 00:32:04,VALID,1007.06,VALID,0,VALID,104,VALID,0,VALID,23.8676,VALID,170,VALID,0.383594,
2012-07-04, 00:33:04,VALID,1007.07,VALID,0,VALID,104,VALID,0,VALID,23.9084,VALID,170,VALID,0.222656,
2012-07-04, 00:34:04,VALID,1007.07,VALID,0,VALID,104,VALID,0,VALID,23.8871,VALID,170,VALID,0.292969,
2012-07-04, 00:35:04,VALID,1007.04,VALID,0,VALID,104,VALID,0.112112,VALID,23.9065,VALID,170,VALID,0.271484,
2012-07-04, 00:36:04,VALID,1007.03,VALID,0,VALID,104,VALID,0,VALID,23.9473,VALID,124,VALID,0.709766,
2012-07-04, 00:37:04,VALID,1007.03,VALID,0,VALID,104,VALID,0,VALID,23.9473,VALID,119,VALID,0.448438,
2012-07-04, 00:38:04,VALID,1007.02,VALID,0,VALID,104,VALID,0,VALID,23.9668,VALID,119,VALID,0.533203,
2012-07-04, 00:39:04,VALID,1007.06,VALID,0,VALID,104,VALID,0,VALID,23.9473,VALID,119,VALID,0.0632813,
2012-07-04, 00:40:04,VALID,1007.05,VALID,0,VALID,104,VALID,0,VALID,23.9473,VALID,119,VALID,0.190625,
2012-07-04, 00:41:04,VALID,1007.07,VALID,0,VALID,104,VALID,0.112112,VALID,23.926,VALID,119,VALID,0.173828,
2012-07-04, 00:42:04,VALID,1007.09,VALID,0,VALID,104,VALID,0,VALID,23.926,VALID,119,VALID,0.330469,
2012-07-04, 00:43:04,VALID,1007.08,VALID,0,VALID,104,VALID,0,VALID,23.9473,VALID,119,VALID,0.4,
2012-07-04, 00:44:04,VALID,1007.05,VALID,0,VALID,104,VALID,0.112112,VALID,23.9473,VALID,119,VALID,0.472266,
2012-07-04, 00:45:04,VALID,1007.07,VALID,0,VALID,104,VALID,0,VALID,23.9473,VALID,114,VALID,0.545703,
2012-07-04, 00:46:04,VALID,1007.06,VALID,0,VALID,104,VALID,0,VALID,23.926,VALID,113,VALID,0.365625,
2012-07-04, 00:47:04,VALID,1007.05,VALID,0,VALID,104,VALID,0.112112,VALID,23.9278,VALID,113,VALID,0.272266,
2012-07-04, 00:48:04,VALID,1007.01,VALID,0,VALID,104,VALID,0.112112,VALID,23.9065,VALID,113,VALID,0,
2012-07-04, 00:49:04,VALID,1007.01,VALID,0,VALID,104,VALID,0,VALID,23.8676,VALID,113,VALID,0.408594,
2012-07-04, 00:50:04,VALID,1007,VALID,0,VALID,104,VALID,0,VALID,23.8889,VALID,113,VALID,0.263672,
2012-07-04, 00:51:04,VALID,1007.03,VALID,0,VALID,104,VALID,0.112112,VALID,23.8676,VALID,114,VALID,0.320313,
2012-07-04, 00:52:04,VALID,1007.04,VALID,0,VALID,104,VALID,0.112112,VALID,23.9084,VALID,113,VALID,0.390234,
2012-07-04, 00:53:04,VALID,1007.04,VALID,0,VALID,104,VALID,0.112112,VALID,23.8889,VALID,103,VALID,0.538672,
2012-07-04, 00:54:04,VALID,1007.06,VALID,0,VALID,104,VALID,0,VALID,23.8676,VALID,93,VALID,0.428906,
2012-07-04, 00:55:04,VALID,1007.02,VALID,0,VALID,104,VALID,0,VALID,23.8694,VALID,69,VALID,0.696484,
2012-07-04, 00:56:04,VALID,1007.04,VALID,0,VALID,104,VALID,0,VALID,23.8889,VALID,71,VALID,0.683203,
2012-07-04, 00:57:04,VALID,1007.04,VALID,0,VALID,104,VALID,0,VALID,23.8871,VALID,95,VALID,0.990625,
2012-07-04, 00:58:04,VALID,1007.05,VALID,0,VALID,104,VALID,0,VALID,23.9084,VALID,107,VALID,0.782812,
2012-07-04, 00:59:04,VALID,1007.06,VALID,0,VALID,104,VALID,0.112112,VALID,23.9278,VALID,102,VALID,0.479297,
2012-07-04, 01:00:04,VALID,1007.04,VALID,0,VALID,104,VALID,0.112112,VALID,23.9084,VALID,102,VALID,0.422656,
2012-07-04, 01:01:04,VALID,1007.05,VALID,0,VALID,104,VALID,0,VALID,23.9084,VALID,116,VALID,0.471875,
2012-07-04, 01:02:04,VALID,1007.02,VALID,0,VALID,104,VALID,0.112112,VALID,23.9278,VALID,116,VALID,0.476563,
2012-07-04, 01:03:04,VALID,1007.02,VALID,0,VALID,104,VALID,0,VALID,23.9084,VALID,116,VALID,0.214844,
2012-07-04, 01:04:04,VALID,1006.99,VALID,0,VALID,104,VALID,0.112112,VALID,23.9084,VALID,116,VALID,0.458984,
2012-07-04, 01:05:04,VALID,1006.99,VALID,0,VALID,104,VALID,0.112112,VALID,23.8889,VALID,116,VALID,0.222656,
2012-07-04, 01:06:04,VALID,1007,VALID,0,VALID,104,VALID,0.112112,VALID,23.8889,VALID,116,VALID,0.296094,
2012-07-04, 01:07:04,VALID,1006.94,VALID,0,VALID,104,VALID,0,VALID,23.8676,VALID,116,VALID,0.392578,
2012-07-04, 01:08:04,VALID,1006.97,VALID,0,VALID,104,VALID,0,VALID,23.8694,VALID,116,VALID,0.495313,
2012-07-04, 01:09:04,VALID,1006.96,VALID,0,VALID,104,VALID,0,VALID,23.8481,VALID,116,VALID,0.687109,
2012-07-04, 01:10:04,VALID,1006.93,VALID,0,VALID,104,VALID,0.112112,VALID,23.8481,VALID,125,VALID,0.893359,
2012-07-04, 01:11:04,VALID,1006.88,VALID,0,VALID,104,VALID,0,VALID,23.8889,VALID,112,VALID,0.798047,
2012-07-04, 01:12:04,VALID,1006.86,VALID,0,VALID,104,VALID,0,VALID,23.8694,VALID,111,VALID,1.04297,
2012-07-04, 01:13:04,VALID,1006.84,VALID,0,VALID,104,VALID,0,VALID,23.8694,VALID,115,VALID,0.670313,
2012-07-04, 01:14:04,VALID,1006.84,VALID,0,VALID,104,VALID,0,VALID,23.8676,VALID,119,VALID,1.00547,
2012-07-04, 01:15:04,VALID,1006.8,VALID,0,VALID,104,VALID,0,VALID,23.8694,VALID,79,VALID,0.545703,
2012-07-04, 01:16:04,VALID,1006.81,VALID,0,VALID,104,VALID,0,VALID,23.8889,VALID,88,VALID,0.959766,
2012-07-04, 01:17:04,VALID,1006.86,VALID,0,VALID,104,VALID,0,VALID,23.8694,VALID,109,VALID,1.08125,
2012-07-04, 01:18:04,VALID,1006.84,VALID,0,VALID,104,VALID,0,VALID,23.8694,VALID,118,VALID,1.33789,
2012-07-04, 01:19:04,VALID,1006.84,VALID,0,VALID,104,VALID,0,VALID,23.8889,VALID,126,VALID,1.6082,
2012-07-04, 01:20:04,VALID,1006.82,VALID,0,VALID,104,VALID,0,VALID,23.8499,VALID,105,VALID,1.43125,
2012-07-04, 01:21:04,VALID,1006.83,VALID,0,VALID,104,VALID,0,VALID,23.8694,VALID,100,VALID,1.16562,
2012-07-04, 01:22:04,VALID,1006.8,VALID,0,VALID,104,VALID,0.112112,VALID,23.8481,VALID,92,VALID,0.975391,
2012-07-04, 01:23:04,VALID,1006.77,VALID,0,VALID,104,VALID,0,VALID,23.8286,VALID,113,VALID,0.677734,
2012-07-04, 01:24:04,VALID,1006.76,VALID,0,VALID,104,VALID,0,VALID,23.8499,VALID,119,VALID,1.65078,
2012-07-04, 01:25:04,VALID,1006.75,VALID,0,VALID,104,VALID,0,VALID,23.8499,VALID,94,VALID,1.23477,
2012-07-04, 01:26:04,VALID,1006.72,VALID,0,VALID,104,VALID,0,VALID,23.8499,VALID,131,VALID,0.722266,
2012-07-04, 01:27:04,VALID,1006.68,VALID,0,VALID,104,VALID,0,VALID,23.8499,VALID,79,VALID,0.4125,
2012-07-04, 01:28:04,VALID,1006.66,VALID,0,VALID,104,VALID,0,VALID,23.8499,VALID,65,VALID,0.631641,
2012-07-04, 01:29:04,VALID,1006.65,VALID,0,VALID,104,VALID,0,VALID,23.8499,VALID,73,VALID,0.503516,
2012-07-04, 01:30:04,VALID,1006.65,VALID,0,VALID,104,VALID,0,VALID,23.8499,VALID,92,VALID,0.658984,
2012-07-04, 01:31:04,VALID,1006.61,VALID,0,VALID,104,VALID,0.112112,VALID,23.8286,VALID,98,VALID,1.00664,
2012-07-04, 01:32:04,VALID,1006.6,VALID,0,VALID,104,VALID,0,VALID,23.8499,VALID,105,VALID,0.513672,
2012-07-04, 01:33:04,VALID,1006.59,VALID,0,VALID,104,VALID,0,VALID,23.8286,VALID,114,VALID,0.472656,
2012-07-04, 01:34:04,VALID,1006.62,VALID,0,VALID,104,VALID,0,VALID,23.8499,VALID,120,VALID,0.862891,
2012-07-04, 01:35:04,VALID,1006.59,VALID,0,VALID,104,VALID,0,VALID,23.8499,VALID,114,VALID,0.989844,
2012-07-04, 01:36:04,VALID,1006.55,VALID,0,VALID,104,VALID,0,VALID,23.8499,VALID,118,VALID,0.603906,
2012-07-04, 01:37:04,VALID,1006.54,VALID,0,VALID,104,VALID,0,VALID,23.8499,VALID,125,VALID,0.962891,
2012-07-04, 01:38:04,VALID,1006.49,VALID,0,VALID,104,VALID,0,VALID,23.8499,VALID,107,VALID,0.685938,
2012-07-04, 01:39:04,VALID,1006.48,VALID,0,VALID,104,VALID,0,VALID,23.8499,VALID,110,VALID,0.989844,
2012-07-04, 01:40:04,VALID,1006.42,VALID,0,VALID,104,VALID,0,VALID,23.8286,VALID,109,VALID,0.271094,
2012-07-04, 01:41:04,VALID,1006.39,VALID,0,VALID,104,VALID,0,VALID,23.8304,VALID,107,VALID,0.820313,
2012-07-04, 01:42:04,VALID,1006.38,VALID,0,VALID,104,VALID,0,VALID,23.8091,VALID,100,VALID,0.367969,
2012-07-04, 01:43:04,VALID,1006.36,VALID,0,VALID,104,VALID,0,VALID,23.8091,VALID,134,VALID,0.8625,
2012-07-04, 01:44:04,VALID,1006.33,VALID,0,VALID,104,VALID,0,VALID,23.8304,VALID,142,VALID,0.933984,
2012-07-04, 01:45:04,VALID,1006.29,VALID,0,VALID,104,VALID,0,VALID,23.8286,VALID,138,VALID,1.42695,
2012-07-04, 01:46:04,VALID,1006.26,VALID,0,VALID,104,VALID,0,VALID,23.8499,VALID,133,VALID,1.12617,
2012-07-04, 01:47:04,VALID,1006.21,VALID,0,VALID,104,VALID,0,VALID,23.8499,VALID,142,VALID,0.928516,
2012-07-04, 01:48:04,VALID,1006.18,VALID,0,VALID,104,VALID,0,VALID,23.8499,VALID,139,VALID,0.667578,
2012-07-04, 01:49:04,VALID,1006.14,VALID,0,VALID,104,VALID,0.112112,VALID,23.8694,VALID,120,VALID,1.14609,
2012-07-04, 01:50:04,VALID,1006.13,VALID,0,VALID,104,VALID,0,VALID,23.8694,VALID,127,VALID,0.655078,
2012-07-04, 01:51:04,VALID,1006.15,VALID,0,VALID,104,VALID,0,VALID,23.8694,VALID,123,VALID,0.963672,
2012-07-04, 01:52:04,VALID,1006.15,VALID,0,VALID,104,VALID,0,VALID,23.8694,VALID,131,VALID,1.29102,
2012-07-04, 01:53:04,VALID,1006.18,VALID,0,VALID,104,VALID,0.112112,VALID,23.8889,VALID,122,VALID,0.925781,
2012-07-04, 01:54:04,VALID,1006.15,VALID,0,VALID,104,VALID,0.112112,VALID,23.9084,VALID,125,VALID,1.18594,
2012-07-04, 01:55:04,VALID,1006.18,VALID,0,VALID,104,VALID,0,VALID,23.8889,VALID,136,VALID,1.41172,
2012-07-04, 01:56:04,VALID,1006.17,VALID,0,VALID,104,VALID,0,VALID,23.8676,VALID,151,VALID,1.05,
2012-07-04, 01:57:04,VALID,1006.13,VALID,0,VALID,104,VALID,0,VALID,23.8481,VALID,126,VALID,0.975781,
2012-07-04, 01:58:04,VALID,1006.13,VALID,0,VALID,104,VALID,0,VALID,23.8286,VALID,117,VALID,0.591016,
2012-07-04, 01:59:04,VALID,1006.13,VALID,0,VALID,104,VALID,0,VALID,23.8694,VALID,121,VALID,0.529297,
2012-07-04, 02:00:04,VALID,1006.11,VALID,0,VALID,104,VALID,0,VALID,23.8499,VALID,123,VALID,1.15508,
2012-07-04, 02:01:05,VALID,1006.11,VALID,0,VALID,104,VALID,0,VALID,23.8694,VALID,119,VALID,0.622266,
2012-07-04, 02:02:05,VALID,1006.12,VALID,0,VALID,104,VALID,0,VALID,23.8694,VALID,119,VALID,1.425,
2012-07-04, 02:03:05,VALID,1006.13,VALID,0,VALID,104,VALID,0,VALID,23.8499,VALID,121,VALID,1.07305,
2012-07-04, 02:04:05,VALID,1006.11,VALID,0,VALID,104,VALID,0,VALID,23.8676,VALID,126,VALID,1.27266,
2012-07-04, 02:05:05,VALID,1006.11,VALID,0,VALID,104,VALID,0,VALID,23.8889,VALID,105,VALID,0.510938,
2012-07-04, 02:06:05,VALID,1006.1,VALID,0,VALID,104,VALID,0,VALID,23.8694,VALID,101,VALID,1.25195,
2012-07-04, 02:07:05,VALID,1006.1,VALID,0,VALID,104,VALID,0,VALID,23.8481,VALID,110,VALID,0.744141,
2012-07-04, 02:08:05,VALID,1006.1,VALID,0,VALID,104,VALID,0,VALID,23.8694,VALID,97,VALID,0.794922,
2012-07-04, 02:09:05,VALID,1006.07,VALID,0,VALID,104,VALID,0,VALID,23.8694,VALID,110,VALID,1.32187,
2012-07-04, 02:10:05,VALID,1006.06,VALID,0,VALID,104,VALID,0,VALID,23.8889,VALID,92,VALID,0.911719,
2012-07-04, 02:11:05,VALID,1006.04,VALID,0,VALID,104,VALID,0,VALID,23.8889,VALID,125,VALID,1.30508,
2012-07-04, 02:12:05,VALID,1006.05,VALID,0,VALID,104,VALID,0,VALID,23.8676,VALID,96,VALID,1.00859,
2012-07-04, 02:13:05,VALID,1006.03,VALID,0,VALID,104,VALID,0,VALID,23.8871,VALID,111,VALID,1.00352,
2012-07-04, 02:14:05,VALID,1006.01,VALID,0,VALID,104,VALID,0,VALID,23.8871,VALID,112,VALID,0.830078,
2012-07-04, 02:15:05,VALID,1006.05,VALID,0,VALID,104,VALID,0,VALID,23.8676,VALID,115,VALID,1.08711,
2012-07-04, 02:16:05,VALID,1006.06,VALID,0,VALID,104,VALID,0,VALID,23.8871,VALID,94,VALID,0.319922,
2012-07-04, 02:17:05,VALID,1006.06,VALID,0,VALID,104,VALID,0,VALID,23.8889,VALID,92,VALID,0.521484,
2012-07-04, 02:18:05,VALID,1006.11,VALID,0,VALID,104,VALID,0,VALID,23.8889,VALID,92,VALID,0.350391,
2012-07-04, 02:19:05,VALID,1006.12,VALID,0,VALID,104,VALID,0.112112,VALID,23.8676,VALID,69,VALID,0.546875,
2012-07-04, 02:20:05,VALID,1006.15,VALID,0,VALID,104,VALID,0.112112,VALID,23.8676,VALID,56,VALID,0.808203,
2012-07-04, 02:21:05,VALID,1006.15,VALID,0,VALID,104,VALID,0,VALID,23.8889,VALID,43,VALID,0.802344,
2012-07-04, 02:22:05,VALID,1006.16,VALID,0,VALID,104,VALID,0,VALID,23.8694,VALID,42,VALID,0.651563,
2012-07-04, 02:23:05,VALID,1006.18,VALID,0,VALID,104,VALID,0,VALID,23.8694,VALID,45,VALID,0.575391,
2012-07-04, 02:24:05,VALID,1006.2,VALID,0,VALID,104,VALID,0.112112,VALID,23.8481,VALID,45,VALID,0.607813,
2012-07-04, 02:25:05,VALID,1006.21,VALID,0,VALID,104,VALID,0,VALID,23.8694,VALID,44,VALID,0.520312,
2012-07-04, 02:26:05,VALID,1006.22,VALID,0,VALID,104,VALID,0,VALID,23.8694,VALID,44,VALID,0.435547,
2012-07-04, 02:27:05,VALID,1006.22,VALID,0,VALID,104,VALID,0,VALID,23.8286,VALID,44,VALID,0.516797,
2012-07-04, 02:28:05,VALID,1006.23,VALID,0,VALID,104,VALID,0,VALID,23.8499,VALID,350,VALID,0.630859,
2012-07-04, 02:29:05,VALID,1006.18,VALID,0,VALID,104,VALID,0,VALID,23.8499,VALID,350,VALID,0.733984,
2012-07-04, 02:30:05,VALID,1006.19,VALID,0,VALID,104,VALID,0,VALID,23.8304,VALID,350,VALID,0.3875,
2012-07-04, 02:31:05,VALID,1006.12,VALID,0,VALID,104,VALID,0,VALID,23.8304,VALID,350,VALID,0.364453,
2012-07-04, 02:32:05,VALID,1006.13,VALID,0,VALID,104,VALID,0,VALID,23.8109,VALID,350,VALID,0.253516,
2012-07-04, 02:33:05,VALID,1006.12,VALID,0,VALID,104,VALID,0,VALID,23.7914,VALID,350,VALID,0.285547,
2012-07-04, 02:34:05,VALID,1006.13,VALID,0,VALID,104,VALID,0,VALID,23.7914,VALID,350,VALID,0.125,
2012-07-04, 02:35:05,VALID,1006.13,VALID,0,VALID,104,VALID,0,VALID,23.772,VALID,350,VALID,0.0535156,
2012-07-04, 02:36:05,VALID,1006.14,VALID,0,VALID,104,VALID,0.112112,VALID,23.733,VALID,350,VALID,0.101953,
2012-07-04, 02:37:05,VALID,1006.11,VALID,0,VALID,104,VALID,0,VALID,23.733,VALID,350,VALID,0.0320312,
2012-07-04, 02:38:05,VALID,1006.13,VALID,0,VALID,104,VALID,0,VALID,23.733,VALID,350,VALID,0.251563,
2012-07-04, 02:39:05,VALID,1006.14,VALID,0,VALID,104,VALID,0.112112,VALID,23.7117,VALID,350,VALID,0.313281,
2012-07-04, 02:40:05,VALID,1006.16,VALID,0,VALID,104,VALID,0,VALID,23.6922,VALID,350,VALID,0.185156,
2012-07-04, 02:41:05,VALID,1006.16,VALID,0,VALID,104,VALID,0,VALID,23.7135,VALID,350,VALID,0,
2012-07-04, 02:42:05,VALID,1006.14,VALID,0,VALID,104,VALID,0,VALID,23.694,VALID,350,VALID,0,
2012-07-04, 02:43:05,VALID,1006.14,VALID,0,VALID,104,VALID,0,VALID,23.694,VALID,350,VALID,0.5375,
2012-07-04, 02:44:05,VALID,1006.16,VALID,0,VALID,104,VALID,0,VALID,23.6745,VALID,350,VALID,0.573438,
2012-07-04, 02:45:05,VALID,1006.15,VALID,0,VALID,104,VALID,0,VALID,23.6745,VALID,350,VALID,0.526172,
2012-07-04, 02:46:05,VALID,1006.16,VALID,0,VALID,104,VALID,0,VALID,23.6745,VALID,350,VALID,0.572656,
2012-07-04, 02:47:05,VALID,1006.17,VALID,0,VALID,104,VALID,0,VALID,23.6532,VALID,354,VALID,0.76875,
2012-07-04, 02:48:05,VALID,1006.14,VALID,0,VALID,104,VALID,0,VALID,23.6745,VALID,37,VALID,0.40625,
2012-07-04, 02:49:05,VALID,1006.13,VALID,0,VALID,104,VALID,0.112112,VALID,23.6532,VALID,40,VALID,0.4125,
2012-07-04, 02:50:05,VALID,1006.13,VALID,0,VALID,104,VALID,0,VALID,23.6727,VALID,62,VALID,0.429688,
2012-07-04, 02:51:05,VALID,1006.12,VALID,0,VALID,104,VALID,0,VALID,23.694,VALID,62,VALID,0.275391,
2012-07-04, 02:52:05,VALID,1006.12,VALID,0,VALID,104,VALID,0,VALID,23.694,VALID,62,VALID,0.287891,
2012-07-04, 02:53:05,VALID,1006.09,VALID,0,VALID,104,VALID,0,VALID,23.7135,VALID,88,VALID,0.889063,
2012-07-04, 02:54:05,VALID,1006.12,VALID,0,VALID,104,VALID,0,VALID,23.6922,VALID,91,VALID,0.935156,
2012-07-04, 02:55:05,VALID,1006.1,VALID,0,VALID,104,VALID,0,VALID,23.6727,VALID,82,VALID,0.905469,
2012-07-04, 02:56:05,VALID,1006.13,VALID,0,VALID,104,VALID,0,VALID,23.6745,VALID,78,VALID,0.900391,
2012-07-04, 02:57:05,VALID,1006.11,VALID,0,VALID,104,VALID,0,VALID,23.6745,VALID,79,VALID,0.492578,
2012-07-04, 02:58:05,VALID,1006.14,VALID,0,VALID,104,VALID,0,VALID,23.6727,VALID,97,VALID,1.08359,
2012-07-04, 02:59:05,VALID,1006.13,VALID,0,VALID,104,VALID,0,VALID,23.7135,VALID,87,VALID,0.560156,
2012-07-04, 03:00:05,VALID,1006.1,VALID,0,VALID,104,VALID,0,VALID,23.7117,VALID,78,VALID,0.658594,
2012-07-04, 03:01:05,VALID,1006.08,VALID,0,VALID,104,VALID,0,VALID,23.7117,VALID,78,VALID,0.651563,
2012-07-04, 03:02:05,VALID,1006.07,VALID,0,VALID,104,VALID,0,VALID,23.7312,VALID,122,VALID,1.09492,
2012-07-04, 03:03:05,VALID,1006.09,VALID,0,VALID,104,VALID,0,VALID,23.7312,VALID,88,VALID,0.358594,
2012-07-04, 03:04:05,VALID,1006.12,VALID,0,VALID,104,VALID,0,VALID,23.772,VALID,88,VALID,0.589844,
2012-07-04, 03:05:05,VALID,1006.1,VALID,0,VALID,104,VALID,0,VALID,23.772,VALID,79,VALID,0.826953,
2012-07-04, 03:06:05,VALID,1006.11,VALID,0,VALID,104,VALID,0,VALID,23.772,VALID,104,VALID,0.934375,
2012-07-04, 03:07:05,VALID,1006.14,VALID,0,VALID,104,VALID,0,VALID,23.7525,VALID,80,VALID,0.580859,
2012-07-04, 03:08:05,VALID,1006.16,VALID,0,VALID,104,VALID,0,VALID,23.7525,VALID,71,VALID,0.669922,
2012-07-04, 03:09:05,VALID,1006.16,VALID,0,VALID,104,VALID,0,VALID,23.772,VALID,73,VALID,1.17969,
2012-07-04, 03:10:05,VALID,1006.19,VALID,0,VALID,104,VALID,0,VALID,23.7525,VALID,63,VALID,1.30859,
2012-07-04, 03:11:05,VALID,1006.18,VALID,0,VALID,104,VALID,0,VALID,23.7525,VALID,67,VALID,0.867188,
2012-07-04, 03:12:05,VALID,1006.18,VALID,0,VALID,104,VALID,0,VALID,23.7525,VALID,83,VALID,0.907812,
2012-07-04, 03:13:05,VALID,1006.21,VALID,0,VALID,104,VALID,0,VALID,23.7117,VALID,71,VALID,1.18359,
2012-07-04, 03:14:05,VALID,1006.24,VALID,0,VALID,104,VALID,0,VALID,23.7117,VALID,72,VALID,0.515625,
2012-07-04, 03:15:05,VALID,1006.25,VALID,0,VALID,104,VALID,0,VALID,23.733,VALID,72,VALID,0.532031,
2012-07-04, 03:16:05,VALID,1006.3,VALID,0,VALID,104,VALID,0,VALID,23.7135,VALID,72,VALID,0.558594,
2012-07-04, 03:17:05,VALID,1006.3,VALID,0,VALID,104,VALID,0,VALID,23.7135,VALID,72,VALID,0.0914062,
2012-07-04, 03:18:05,VALID,1006.31,VALID,0,VALID,104,VALID,0,VALID,23.6922,VALID,72,VALID,0.197266,
2012-07-04, 03:19:05,VALID,1006.29,VALID,0,VALID,104,VALID,0,VALID,23.7135,VALID,72,VALID,0.0210938,
2012-07-04, 03:20:05,VALID,1006.26,VALID,0,VALID,104,VALID,0,VALID,23.6727,VALID,72,VALID,0.251953,
2012-07-04, 03:21:05,VALID,1006.23,VALID,0,VALID,104,VALID,0,VALID,23.6745,VALID,48,VALID,0.518359,
2012-07-04, 03:22:05,VALID,1006.24,VALID,0,VALID,104,VALID,0,VALID,23.6745,VALID,49,VALID,0.691016,
2012-07-04, 03:23:05,VALID,1006.22,VALID,0,VALID,104,VALID,0.112112,VALID,23.6356,VALID,49,VALID,0.400781,
2012-07-04, 03:24:05,VALID,1006.23,VALID,0,VALID,104,VALID,0.112112,VALID,23.6143,VALID,49,VALID,0.362109,
2012-07-04, 03:25:05,VALID,1006.27,VALID,0,VALID,104,VALID,0.112112,VALID,23.6161,VALID,49,VALID,0.245703,
2012-07-04, 03:26:05,VALID,1006.26,VALID,0,VALID,104,VALID,0,VALID,23.6161,VALID,49,VALID,0.116797,
2012-07-04, 03:27:05,VALID,1006.26,VALID,0,VALID,104,VALID,0,VALID,23.5966,VALID,49,VALID,0.416797,
2012-07-04, 03:28:05,VALID,1006.29,VALID,0,VALID,104,VALID,0.112112,VALID,23.5771,VALID,49,VALID,0.529297,
2012-07-04, 03:29:05,VALID,1006.27,VALID,0,VALID,104,VALID,0,VALID,23.5771,VALID,49,VALID,0.470703,
2012-07-04, 03:30:05,VALID,1006.28,VALID,0,VALID,104,VALID,0,VALID,23.5576,VALID,49,VALID,0.408203,
2012-07-04, 03:31:05,VALID,1006.27,VALID,0,VALID,104,VALID,0,VALID,23.5576,VALID,49,VALID,0.0140625,
2012-07-04, 03:32:05,VALID,1006.25,VALID,0,VALID,104,VALID,0,VALID,23.5363,VALID,49,VALID,0.3,
2012-07-04, 03:33:05,VALID,1006.24,VALID,0,VALID,104,VALID,0,VALID,23.5576,VALID,49,VALID,0,
2012-07-04, 03:34:05,VALID,1006.2,VALID,0,VALID,104,VALID,0,VALID,23.5381,VALID,49,VALID,0,
2012-07-04, 03:35:05,VALID,1006.18,VALID,0,VALID,104,VALID,0,VALID,23.4974,VALID,49,VALID,0.140234,
2012-07-04, 03:36:05,VALID,1006.2,VALID,0,VALID,104,VALID,0.112112,VALID,23.5381,VALID,49,VALID,0,
2012-07-04, 03:37:05,VALID,1006.2,VALID,0,VALID,104,VALID,0,VALID,23.4992,VALID,49,VALID,0,
2012-07-04, 03:38:05,VALID,1006.23,VALID,0,VALID,104,VALID,0,VALID,23.5186,VALID,49,VALID,0,
2012-07-04, 03:39:05,VALID,1006.23,VALID,0,VALID,104,VALID,0,VALID,23.5186,VALID,49,VALID,0.137891,
2012-07-04, 03:40:05,VALID,1006.24,VALID,0,VALID,104,VALID,0,VALID,23.5186,VALID,49,VALID,0.161328,
2012-07-04, 03:41:05,VALID,1006.23,VALID,0,VALID,104,VALID,0,VALID,23.4992,VALID,44,VALID,0.678125,
2012-07-04, 03:42:05,VALID,1006.28,VALID,0,VALID,104,VALID,0,VALID,23.4779,VALID,38,VALID,0.232812,
2012-07-04, 03:43:05,VALID,1006.26,VALID,0,VALID,104,VALID,0,VALID,23.4779,VALID,38,VALID,0,
2012-07-04, 03:44:05,VALID,1006.31,VALID,0,VALID,104,VALID,0,VALID,23.4797,VALID,38,VALID,0.202734,
2012-07-04, 03:45:05,VALID,1006.28,VALID,0,VALID,104,VALID,0,VALID,23.4797,VALID,38,VALID,0,
2012-07-04, 03:46:05,VALID,1006.28,VALID,0,VALID,104,VALID,0,VALID,23.4584,VALID,38,VALID,0,
2012-07-04, 03:47:05,VALID,1006.29,VALID,0,VALID,104,VALID,0,VALID,23.4602,VALID,38,VALID,0,
2012-07-04, 03:48:05,VALID,1006.3,VALID,0,VALID,104,VALID,0.112112,VALID,23.4797,VALID,38,VALID,0,
2012-07-04, 03:49:05,VALID,1006.3,VALID,0,VALID,104,VALID,0,VALID,23.4602,VALID,38,VALID,0,
2012-07-04, 03:50:05,VALID,1006.33,VALID,0,VALID,104,VALID,0.112112,VALID,23.4602,VALID,38,VALID,0,
2012-07-04, 03:51:05,VALID,1006.32,VALID,0,VALID,104,VALID,0.112112,VALID,23.4602,VALID,38,VALID,0,
2012-07-04, 03:52:05,VALID,1006.33,VALID,0,VALID,104,VALID,0,VALID,23.4602,VALID,38,VALID,0,
2012-07-04, 03:53:05,VALID,1006.31,VALID,0,VALID,104,VALID,0,VALID,23.4602,VALID,38,VALID,0,
2012-07-04, 03:54:05,VALID,1006.33,VALID,0,VALID,104,VALID,0,VALID,23.4602,VALID,38,VALID,0,